Regional Weather Roundup
Issued by NWS Midland/Odessa, TX

Skip options and go directly to product.
Home | Oldest Version | Previous Version | Current Version | All | Text Only | Save Text | Print | Product List | Glossary On

Skip product version selection by date and time.   
553
ASUS44 KMAF 232010
RWRMAF
MIDLAND AREA WEATHER ROUNDUP
NATIONAL WEATHER SERVICE MIDLAND TX
300 PM CDT TUE MAY 23 2017

...IN SOUTHWEST TEXAS AND SOUTHEAST NEW MEXICO...

CITY           SKY/WX    TMP DP  RH WIND       PRES   REMARKS
ALPINE         CLOUDY    62  49  63 N16G28    30.19S
ANDREWS        CLOUDY    65  38  36 N17G30    30.13F
ARTESIA        PTSUNNY   66  41  39 N16       30.16F
BIG SPRING     CLOUDY    60  44  56 N18G28    30.13R
CARLSBAD       PTSUNNY   69  42  37 N15G24    30.12F
DRYDEN           N/A     76  57  51 N18G25    29.98S
FORT STOCKTON  CLOUDY    62  52  69 N15       30.10S
GUAD PASS      MOSUNNY   64  41  42 NE23G38   30.16
HOBBS          MOSUNNY   63  37  39 N21       30.15F
MARFA          SUNNY     67  49  52 N25G31    30.11F
MIDLAND AIRPK  CLOUDY    65  43  45 N16G28    30.12S
MIDLAND INTL   PTSUNNY   67  44  43 N24       30.10F
ODESSA         CLOUDY    68  44  42 NE21G28   30.11F
PECOS          CLOUDY    68  43  40 N14       30.11F
PRESIDIO       FAIR      96  33  11 W18G25    29.92F
SEMINOLE       PTSUNNY   61  40  45 N13G18    30.15F
SNYDER         CLOUDY    57  46  67 N23G30    30.11F
WINK           PTSUNNY   72  43  35 N16G26    30.10F
$$
...OTHER STATIONS IN TEXAS...

CITY           SKY/WX    TMP DP  RH WIND       PRES   REMARKS
ABILENE          N/A    N/A N/A N/A MISG      30.06R
AMARILLO       PTSUNNY   63  38  39 N16G23    30.08F
AUSTIN         PTSUNNY   83  63  50 NW7       29.83F
BROWNSVILLE    LGT RAIN  79  71  76 SE10      29.79F
CORPUS CHRISTI PTSUNNY   85  72  65 E6        29.79F
DALLAS FTW     CLOUDY    73  58  59 NW22G30   29.86S
DEL RIO        CLOUDY    75  69  81 NW9       29.89S
EL PASO        MOSUNNY   83  36  18 VRB5      30.01F
HOUSTON INT    MOSUNNY   84  65  52 NE8       29.79F
LUBBOCK        CLOUDY    59  46  62 NW15      30.10F
SAN ANGELO     CLOUDY    68  49  50 N17G25    30.03R
SAN ANTONIO    PTSUNNY   82  63  52 NE8       29.85S
WACO           PTSUNNY   75  62  64 NW15G28   29.86F
WICHITA FALLS  NOT AVBL
$$
...OTHER LOCATIONS IN NEW MEXICO...

CITY           SKY/WX    TMP DP  RH WIND       PRES   REMARKS
ALAMOGORDO     SUNNY     82  28  14 NW7G22    30.03F
ALBUQUERQUE    MOSUNNY   71  35  26 VRB6      30.09F
CANNON AFB     PTSUNNY   60  40  47 NE8G18    30.14F
CLOVIS         PTSUNNY   63  36  36 N17       30.13F
HOLLOMAN AFB   SUNNY     83  29  14 SW9       30.04F
ROSWELL        MOSUNNY   67  35  30 N12G23    30.15F
RUIDOSO        SUNNY     55  36  47 S7G16     30.23F
SANTA FE       MOSUNNY   64  35  34 SE7       30.15F
TRUTH OR CONSE SUNNY     82  31  15 SE12G17   30.02F
TUCUMCARI      MOSUNNY   68  35  29 N15G23    30.09F
$$

  • National Weather Service
  • Southern Region Headquarters
  • 819 Taylor Street, Room 10A06
  • Fort Worth, TX 76102
  • Page Author: NWS Fort Worth
  • Web Master: SR-SRH.Webmaster@noaa.gov
  •  
  • Page last modified: 30-Sep-2016 6:36 PM UTC
USA.gov is the U.S. government's official web portal to all federal, state and local government web resources and services.